Date,TemperatureHighF,TemperatureAvgF,TemperatureLowF,DewpointHighF,DewpointAvgF,DewpointLowF,HumidityHigh,HumidityAvg,HumidityLow,PressureMaxIn,PressureMinIn,WindSpeedMaxMPH,WindSpeedAvgMPH,GustSpeedMaxMPH,PrecipitationSumIn
2013-2-1,22,17,2,18,13,-2,90,82,74,28.18,28.01,8,3,22,0.00
2013-2-2,36,16,5,31,11,2,94,82,74,28.24,28.02,19,6,30,0.00
2013-2-3,23,17,11,16,12,7,85,81,73,28.22,27.96,8,3,11,0.00
2013-2-4,37,24,11,31,20,7,90,85,78,28.09,27.74,10,4,14,0.01
2013-2-5,34,29,23,29,23,18,86,79,66,28.07,27.77,11,5,20,0.00
2013-2-6,41,27,20,31,23,17,92,84,68,28.18,27.85,9,4,20,0.00
2013-2-7,24,21,16,22,19,14,92,91,90,28.29,28.17,7,4,12,0.00
2013-2-8,27,23,19,24,21,17,93,91,89,28.24,28.02,9,4,16,0.00
2013-2-9,25,24,24,23,22,22,93,92,91,28.03,28.01,2,1,16,0.00
2013-2-10,28,22,18,26,20,15,94,90,85,28.06,27.85,13,6,23,0.00
2013-2-11,25,21,19,19,17,15,90,84,75,28.16,27.95,12,6,19,0.00
2013-2-12,37,32,21,28,25,16,83,76,67,28.02,27.90,8,3,19,0.00
2013-2-13,33,32,30,28,27,26,86,83,80,27.90,27.89,2,1,19,0.00
2013-2-20,12,10,10,8,6,3,86,82,71,28.23,28.20,9,6,19,0.00
2013-2-21,23,16,12,15,11,8,87,80,60,28.27,28.19,8,5,19,0.00
2013-2-22,29,19,12,20,13,8,88,78,68,28.19,27.92,6,2,13,0.00
2013-2-23,14,14,14,11,11,11,88,88,88,27.92,27.92,2,2,6,0.00
2013-2-24,33,29,21,25,22,16,89,77,69,28.18,28.04,10,5,14,0.00
2013-2-25,46,29,13,29,20,10,92,70,43,28.17,27.98,12,4,17,0.00
2013-2-26,44,36,29,28,26,20,86,67,52,28.21,28.00,9,3,15,0.00
2013-2-27,30,28,24,27,24,20,92,84,75,28.37,28.21,8,5,14,0.00
2013-2-28,22,21,21,18,18,18,86,86,85,28.39,28.38,2,1,10,0.00